User: anonymous   Login
Location: Unspecified
(0.0000°N, 0.0000°E)
Time: 04:39:03
(UTC+01:00)
Language:

Meteor 1-10 Rocket - Orbit

View from above orbital plane
View from above orbital plane
View from above satellite
View from above satellite

Ground track
Ground track

The orbit data is extracted from the following two-line orbital elements,

1  5732U 71120B   17346.42698856 +.00000023 +00000-0 +64674-5 0  9994
2  5732 081.2508 310.9572 0050549 262.4482 097.0943 14.05949356363977
Epoch (UTC): 12 December 2017 10:14:51
Eccentricity: 0.0050549
inclination: 81.2508°
perigee height: 836 km
apogee height: 910 km
right ascension of ascending node: 310.9572°
argument of perigee: 262.4482°
revolutions per day: 14.05949356
mean anomaly at epoch: 97.0943°
orbit number at epoch: 36397

The dashed part of the orbit path shows where the satellite is in the earth's shadow,  

DLR